SCP
0 0 0 0 0 0 0 0 0 0 0 0 0 0 0 0 0 0 0 0 0 0 0 0 0 0 0 0 0 0 0 0 0 0 0 0 0 0
0 0 0 0 0 0 0 0 0 0 0 0 0 0 0 0 0 0 0 0 0 0 0 0 0 0 0 0 0 0 0 0 0 0 0 0 0 0
0 0 0 0 0 0 0 0 0 0 0 0 0 0 0 0 0 0 0 0 0 0 0 0 0 0 0 0 0 0 0 0 0 0 0 0 0 0
0 0 0 0 0 0 0 0 0 0 0 0 0 0 0 0 0 0 0 0 0 0 0 0 0 0 0 0 0 0 0 0 0 0 0 0 0 0
0 0 0 0 0 0 0 0 0 0 0 0 0 0 0 0 0 0 0 0 0 0 0 0 0 0 0 0 0 0 0 0 0 0 0 0 0 0
0 0 0 0 0 0 0 0 0 0 0 0 0 0 0 0 0 0 0 0 0 0 0 0 0 0 0 0 0 0 0 0 0 0 0 0 0 0
0 0 0 0 0 0 0 0 0 0 0 0 0 0 0 0 0 0 0 0 0 0 0 0 0 0 0 0 0 0 0 0 0 0 0 0 0 0
0 0 0 0 0 0 0 0 0 0 0 0 0 0 0 0 0 0 0 0 0 0 0 0 0 0 0 0 0 0 0 0 0 0 0 0 0 0
0 0 0 0 0 0 0 0 0 0 0 0 0 0 0 0 0 0 0 0 0 0 0 0 0 0 0 0 0 0 0 0 0 0 0 0 0 0
0 0 0 0 0 0 0 0 0 0 0 0 0 0 0 0 0 0 0 0 0 0 0 0 0 0 0 0 0 0 0 0 0 0 0 0 0 0
0 0 0 0 0 0 0 0 0 0 0 0 0 0 0 0 0 0 0 0 0 0 0 0 0 0 0 0 0 0 0 0 0 0 0 0 0 0
0 0 0 0 0 0 0 0 0 0 0 0 0 0 0 0 0 0 0 0 0 0 0 0 0 0 0 0 0 0 0 0 0 0 0 0 0 0
0 0 0 0 0 0 0 0 0 0 0 0 0 0 0 0 0 0 0 0 0 0 0 0 0 0 0 0 0 0 0 0 0 0 0 0 0 0
0 0 0 0 0 0 0 0 0 0 0 0 0 0 0 0 0 0 0 0 0 0 0 0 0 0 0 0 0 0 0 0 0 0 0 0 0 0
0 0 0 0 0 0 0 0 0 0 0 0 0 0 0 0 0 0 0 0 0 0 0 0 0 0 0 0 0 0 0 0 0 0 0 0 0 0
0 0 0 0 0 0 0 0 0 0 0 0 0 0 0 0 0 0 0 0 0 0 0 0 0 0 0 0 0 0 0 0 0 0 0 0 0 0
0 0 0 0 0 0 0 0 0 0 0 0 0 0 0 0 0 0 0 0 0 0 0 0 0 0 0 0 0 0 0 0 0 0 0 0 0 0
0 0 0 0 0 0 0 0 0 0 0 0 0 0 0 0 0 0 0 0 0 0 0 0 0 0 0 0 0 0 0 0 0 0 0 0 0 0
0 0 0 0 0 0 0 0 0 0 0 0 0 0 0 0 0 0 0 0 0 0 0 0 0 0 0 0 0 0 0 0 0 0 0 0 0 0
0 0 0 0 0 0 0 0 0 0 0 0 0 0 0 0 0 0 0 0 0 0 0 0 0 0 0 0 0 0 0 0 0 0 0 0 0 0
0 0 0 0 0 0 0 0 0 0 0 0 0 0 0 0 0 0 0 0 0 0 0 0 0 0 0 0 0 0 0 0 0 0 0 0 0 0
0 0 0 0 0 0 0 0 0 0 0 0 0 0 0 0 0 0 0 0 0 0 0 0 0 0 0 0 0 0 0 0 0 0 0 0 0 0
0 0 0 0 0 0 0 0 0 0 0 0 0 0 0 0 0 0 0 0 0 0 0 0 0 0 0 0 0 0 0 0 0 0 0 0 0 0
Wind_Speed
5 5 5 4 5 4 5 5 6 8 7 6 5 5 4 5 4 6 8 5 7 9 9 10 10 11 12 12 11 11 12 12 12 13 13 14 14 15
4 4 5 5 4 5 5 6 6 7 8 7 6 6 5 6 6 8 8 7 10 11 11 10 11 11 12 12 12 11 11 12 12 13 14 14 14 14
4 5 5 6 5 5 5 6 6 6 8 8 7 6 6 8 7 8 8 9 7 9 10 10 11 11 12 12 12 12 12 12 12 13 14 14 14 14
4 5 6 5 6 6 5 6 6 6 8 9 7 7 7 7 8 9 8 8 8 6 8 10 11 11 12 12 12 12 11 11 11 12 13 13 13 14
4 4 5 5 6 5 6 6 6 6 6 7 8 6 6 6 7 8 9 7 9 6 8 10 10 11 11 11 11 11 11 11 11 11 12 12 12 12
4 4 5 5 6 6 6 6 6 7 7 7 7 7 6 6 6 7 7 6 7 8 6 6 7 10 11 11 11 11 11 11 11 11 11 11 11 12
4 4 4 4 4 5 6 6 7 7 7 6 7 7 6 6 7 7 7 7 7 7 7 6 5 6 6 9 11 11 10 10 10 11 11 11 11 12
4 5 5 3 3 5 6 7 8 8 7 7 7 7 8 8 7 7 8 8 7 5 7 7 6 6 6 5 3 5 8 9 10 10 11 11 11 11
5 5 5 4 4 5 5 6 7 7 8 8 9 8 8 7 8 9 8 8 8 7 7 8 6 7 6 3 3 5 7 8 9 9 10 11 11 11
4 4 4 5 4 6 7 6 6 5 5 6 6 7 7 7 8 9 9 9 9 6 6 8 7 7 6 5 3 5 7 7 8 9 9 10 10 11
4 3 3 4 3 6 7 6 6 5 4 4 6 7 7 8 8 8 7 7 7 6 4 6 7 7 7 6 3 5 6 7 7 8 8 9 9 9
3 2 2 3 3 5 6 6 6 6 6 5 5 5 6 5 6 7 7 7 7 6 4 5 7 7 7 5 4 3 4 6 7 7 8 8 8 7
4 3 3 2 3 5 6 5 6 8 7 6 5 4 4 4 4 4 5 6 7 7 6 6 7 7 7 7 6 5 4 4 4 4 6 7 8 8
4 4 3 2 5 6 5 4 7 8 5 5 5 5 5 5 5 5 5 6 7 8 7 7 7 7 7 8 6 5 4 4 4 4 4 4 6 8
3 3 2 4 5 4 3 5 6 4 5 5 5 5 5 5 6 5 5 5 7 6 6 6 7 6 7 7 7 6 5 5 4 3 3 3 3 4
2 2 5 7 5 3 3 2 3 4 5 6 6 5 5 5 5 5 5 5 5 5 4 5 5 6 6 7 6 6 5 4 4 3 3 3 3 3
4 3 3 2 3 3 3 3 4 3 4 5 6 6 6 6 6 5 5 6 6 6 5 4 4 4 5 6 6 5 5 4 4 3 3 3 3 3
5 3 3 4 5 5 5 4 4 5 5 5 5 6 6 7 6 6 5 6 6 6 6 5 5 5 5 3 3 5 5 5 4 4 4 3 3 2
4 3 4 4 5 5 4 5 5 5 5 5 5 6 6 7 7 6 5 6 6 6 6 6 5 5 6 6 4 3 5 5 5 5 4 3 3 3
3 4 4 4 4 5 5 5 5 5 5 5 5 6 6 6 6 6 5 6 7 7 6 5 6 6 6 7 6 5 2 4 4 4 4 4 3 2
3 3 4 4 4 4 4 4 5 5 6 6 5 6 6 6 6 7 6 6 6 6 7 6 5 5 5 4 5 4 4 1 2 3 4 4 3 3
4 4 4 4 4 4 4 4 4 4 5 5 5 5 5 6 6 7 7 6 6 6 7 5 5 4 4 4 5 5 5 4 0 1 1 3 3 3
4 4 3 3 3 4 4 5 6 5 5 6 5 5 6 5 5 6 7 6 6 7 7 6 5 5 5 5 5 5 6 6 4 3 2 1 2 2
Wind_Direction
259 256 266 274 269 275 273 272 280 287 291 292 289 292 292 291 291 283 282 259 248 252 255 258 260 259 256 250 247 245 243 242 241 241 241 240 241 242
264 271 273 276 283 271 266 268 269 276 285 292 294 296 304 293 284 284 281 264 245 243 248 253 255 256 254 250 247 244 243 242 241 241 241 241 240 241
265 264 266 272 279 280 276 272 270 271 277 285 292 294 290 287 289 287 279 273 261 227 232 244 251 254 253 250 247 245 243 242 242 241 241 240 240 240
272 275 276 276 278 279 285 282 280 274 271 282 289 286 282 281 282 284 284 281 282 247 228 238 245 248 249 247 245 243 241 240 240 240 241 241 242 240
285 286 287 289 287 292 288 289 289 286 280 280 284 289 287 288 288 283 285 285 282 267 237 234 238 241 244 243 241 239 237 237 238 237 239 240 239 239
288 284 285 290 290 295 292 292 293 293 285 280 282 287 289 298 296 293 291 286 290 292 284 271 245 233 235 235 236 235 233 233 234 234 233 234 235 236
287 288 290 293 297 293 297 304 297 290 289 290 290 295 300 308 303 300 297 295 289 291 295 285 268 260 247 231 227 228 229 231 233 232 230 229 229 230
295 300 295 279 287 270 268 274 278 281 292 295 294 298 301 304 308 302 300 299 298 304 299 292 287 281 273 266 223 214 226 231 232 231 231 230 230 230
296 298 304 321 293 302 289 265 263 253 256 279 289 296 301 310 308 301 300 302 302 306 297 292 294 290 286 284 187 210 225 233 236 236 234 232 231 230
290 289 295 305 333 317 301 300 296 294 278 271 287 292 300 304 297 293 293 286 280 279 290 293 296 296 300 296 216 211 222 228 235 237 238 234 232 231
302 307 300 309 359 320 296 301 306 306 281 263 271 275 281 278 281 286 289 289 294 300 303 298 300 303 298 289 265 217 222 226 233 236 237 234 232 233
305 296 67 352 340 314 302 305 308 311 308 298 276 261 263 259 249 268 289 294 300 304 321 307 301 302 295 290 293 281 256 230 226 232 232 230 225 233
323 328 27 40 324 306 296 303 311 302 294 297 299 297 293 293 284 283 292 295 302 304 318 313 304 300 294 295 296 292 290 291 270 247 225 219 222 233
322 336 12 352 306 293 298 318 300 290 297 311 314 318 317 317 317 312 305 298 293 291 299 302 293 295 295 295 301 307 305 300 294 288 280 229 221 227
333 3 307 267 276 277 257 276 286 306 323 320 318 320 322 320 310 301 295 291 285 280 285 288 287 291 292 293 300 304 306 304 297 294 290 274 259 240
303 271 232 240 255 293 298 291 319 340 326 318 319 321 321 316 310 315 313 309 304 303 302 296 293 295 295 299 299 303 304 300 302 307 303 289 275 263
311 288 305 328 331 337 337 339 336 334 326 326 326 325 322 320 318 318 316 311 308 313 318 320 313 303 297 302 302 308 310 307 305 301 288 280 275 268
299 317 336 340 341 342 340 343 343 342 340 333 329 327 326 323 320 319 319 316 317 319 323 326 325 315 306 316 320 307 310 315 318 314 299 290 289 288
287 329 337 339 338 339 341 339 341 345 339 335 333 332 327 322 321 323 327 328 327 327 328 327 325 325 322 323 331 330 319 320 318 318 316 305 298 303
314 330 331 333 335 339 340 339 338 339 339 335 337 337 331 327 329 328 331 334 327 326 326 330 336 336 325 319 317 321 320 308 310 313 317 314 304 288
330 327 328 332 337 340 337 338 338 338 338 332 340 340 334 330 330 328 327 326 315 320 325 331 338 311 300 303 306 318 336 334 306 307 308 306 309 313
333 332 333 336 333 335 335 334 334 334 333 333 341 337 332 328 328 327 328 326 327 329 328 329 331 321 317 318 320 325 330 337 22 134 15 323 312 314
329 327 327 327 330 331 330 332 332 336 340 340 338 334 331 329 325 324 325 327 333 335 332 331 332 329 331 333 331 331 335 334 337 353 19 58 174 198